Flag for Sweden Weather past 2 weeks in Gothenburg, Sweden

Now
64 °F

Sunny.


Feels Like: 64 °F
Forecast: 54 / 63 °F
Wind: 8 mph from Southeast

Location: Gothenburg / Save

Current Time: Aug 29, 2014 at 6:24:14 PM

Latest Report: Aug 29, 2014 at 5:50 PM


Visibility: 10 mi

Pressure: 29.92 "Hg

Humidity: 60%

Dew point: 50 °F

Location of GothenburgLocation

Historic Weather in Gothenburg — Graph

°F

Gothenburg temperature yesterday

Maximum temperature yesterday: 64 °F (at 12:20 PM)
Minimum temperature yesterday: 48 °F (at 5:50 AM)
Average temperature yesterday: 57 °F

Past Weeks' High & Low Weather Summary

 TemperatureHumidityPressure
High66 °F (Aug 15, 12:20 PM)100% (Aug 15, 11:50 PM)29.98 "Hg (Aug 15, 11:50 PM)
Low41 °F (Aug 29, 5:50 AM)52% (Aug 26, 2:57 PM)29.24 "Hg (Aug 18, 9:50 AM)
Average57 °F79%29.64 "Hg
* Reported Aug 14 5:25 PM — Aug 29 5:20 PM, Gothenburg, Weather by CustomWeather, © 2014

Note: Actual official high and low records may vary slightly from our data, if they occured in-between our weather recording intervals... More about our weather records

Advertising

Gothenburg weather history for previous 24 hours

 ConditionsComfort  
Time TempWeatherWind HumidityBarometerVisibility
5:20 PM
Aug 29
66 °FSunny.7 mph56%29.92 "Hg10 mi
4:20 PM66 °FSunny.6 mph56%29.92 "Hg10 mi
3:50 PM66 °FSunny.7 mph56%29.92 "Hg10 mi
3:20 PM64 °FSunny.7 mph60%29.92 "Hg10 mi
3:00 PM64 °FSunny.6 mph60%29.95 "Hg10 mi
2:20 PM64 °FSunny.6 mph60%29.92 "Hg10 mi
1:57 PM64 °FSunny.9 mph60%29.92 "Hg10 mi
1:20 PM66 °FSunny.9 mph56%29.95 "Hg10 mi
12:50 PM66 °FPassing clouds.7 mph56%29.95 "HgN/A
12:28 PM64 °FSunny.7 mph60%29.95 "Hg10 mi
11:50 AM64 °FSunny.6 mph64%29.95 "Hg10 mi
11:20 AM64 °FSunny.9 mph60%29.95 "Hg10 mi
10:50 AM63 °FSunny.9 mph64%29.95 "Hg10 mi
10:20 AM61 °FSunny.7 mph72%29.95 "Hg10 mi
9:55 AM61 °FSunny.8 mph72%29.95 "Hg10 mi
9:20 AM57 °FPassing clouds.5 mph82%29.98 "HgN/A
8:50 AM54 °FSunny.3 mph94%29.98 "Hg10 mi
8:29 AM52 °FSunny.1 mph100%29.98 "Hg10 mi
7:50 AM46 °FSunny.2 mph100%29.95 "Hg10 mi
7:20 AM45 °FSunny.No wind100%29.98 "Hg10 mi
6:50 AM43 °FLight fog.2 mph93%29.98 "HgN/A
6:20 AM43 °FLight fog.No wind100%29.98 "HgN/A
5:50 AM41 °FLight fog.1 mph100%29.98 "HgN/A
5:20 AM43 °FLight fog.No wind93%29.98 "HgN/A
4:50 AM43 °FFog.No wind100%29.98 "HgN/A
4:30 AM43 °FFog.No wind93%29.98 "HgN/A
3:50 AM45 °FFog.No wind93%29.98 "HgN/A
3:20 AM45 °FFog.No wind93%29.98 "HgN/A
2:50 AM45 °FLight fog.No wind100%29.98 "HgN/A
2:20 AM46 °FFog.No wind93%29.98 "HgN/A
1:50 AM46 °FFog.No wind100%29.98 "HgN/A
1:20 AM46 °FFog.No wind100%29.98 "HgN/A
12:50 AM48 °FFog.No wind94%29.98 "HgN/A
12:20 AM48 °FFog.1 mph94%29.98 "HgN/A
11:50 PM
Aug 28
50 °FFog.1 mph94%29.98 "HgN/A
11:20 PM50 °FFog.No wind94%29.98 "HgN/A
10:50 PM50 °FClear.2 mph100%29.98 "Hg10 mi
10:20 PM52 °FFog.No wind94%29.98 "HgN/A
9:50 PM54 °FClear.2 mph94%29.98 "Hg10 mi
9:20 PM54 °FSunny.No wind94%29.98 "Hg10 mi
8:50 PM57 °FSunny.2 mph88%29.98 "Hg10 mi
8:20 PM59 °FSunny.3 mph82%29.98 "Hg10 mi
7:57 PM59 °FSunny.5 mph82%29.98 "Hg10 mi
7:20 PM61 °FSunny.7 mph77%29.98 "Hg10 mi
6:50 PM63 °FSunny.7 mph73%29.98 "Hg10 mi
6:20 PM63 °FSunny.9 mph73%29.98 "Hg10 mi
Weather by CustomWeather, © 2014

See weather overviewHow to use our weather pages